{"data":{"norad_id":45376,"epoch":"2026-09-19T18:06:31.792032Z","epoch_age_seconds":68533,"freshness":"FRESH","line1":"1 45376U 20019S   26262.75453463  .00055322  00000+0  37421-3 0  9998","line2":"2 45376  53.0348 280.2648 0005388  44.5739 315.5712 15.74499241360319","mean_motion":15.74499241,"eccentricity":0.0005388,"inclination_deg":53.0348,"raan_deg":280.2648,"arg_perigee_deg":44.5739,"mean_anomaly_deg":315.5712,"bstar":0.00037421,"rev_number":36031,"period_min":91.457649676949,"perigee_km":342.43353149508,"apogee_km":349.67952243974,"semimajor_km":6724.1935269674,"source":"CELESTRAK","updated_at":"2026-09-20T09:00:38.231337Z"}}